Regional Weather Roundup
Issued by NWS

Home | Current Version | Previous Version | Text Only | Print | Product List | Glossary On
Versions: 1 2 3 4 5 6 7 8 9 10 11 12 13 14 15 16 17 18 19 20 21 22 23 24 25 26
000
ASUS46 KPQR 031110
RWROR

OREGON REGIONAL WEATHER ROUNDUP
NATIONAL WEATHER SERVICE PORTLAND OR
400 AM PDT TUE AUG 03 2021

NOTE: "FAIR" INDICATES FEW OR NO CLOUDS BELOW 12,000 FEET WITH
NO SIGNIFICANT WEATHER AND/OR OBSTRUCTIONS TO VISIBILITY.

ORZ001>013-031200-
NORTHWEST OREGON


CITY           SKY/WX    TMP DP  RH WIND       PRES   REMARKS
ASTORIA        CLEAR     56  53  90 NW8       30.11S
TILLAMOOK      CLEAR     50  46  87 CALM      30.13S
NEWPORT        CLEAR     50  48  93 CALM      30.14F FOG
FLORENCE       CLOUDY    54  52  94 CALM      30.11S
PORTLAND       PTCLDY    66  55  67 NW5       30.06R
VANCOUVER WA   CLEAR     66  52  60 CALM      30.05R
SCAPPOOSE      CLEAR     63  55  75 CALM      30.04R
HILLSBORO      CLEAR     62  53  72 W5        30.05R
AURORA         CLEAR     65  57  75 W3        30.06R
MCMINNVILLE    CLEAR     60  54  80 W5        30.05R
SALEM          CLEAR     64  54  69 CALM      30.05R
CORVALLIS      CLEAR     57  52  83 NW12      30.08R
EUGENE         CLEAR     59  53  80 S10       30.08S
CRESWELL       CLOUDY    61  54  77 W6        30.07S
$$

ORZ021-028-031200-
SOUTHWEST OREGON


CITY           SKY/WX    TMP DP  RH WIND       PRES   REMARKS
NORTH BEND     CLOUDY    58  55  90 N9        30.15S
BROOKINGS      LGT RAIN  51  51 100 CALM      30.07S VSB 1/4
ROSEBURG       CLEAR     63  50  62 N6        30.09R
SEXTON SUMMIT  CLEAR     66  53  63 N8        30.16F
GRANTS PASS    CLOUDY    68  52  56 CALM      30.06S
MEDFORD        CLOUDY    72  52  49 SE3       30.03S
$$

ORZ014>016-041-031200-
COLUMBIA GORGE


CITY           SKY/WX    TMP DP  RH WIND       PRES   REMARKS
TROUTDALE      CLEAR     66  57  72 W5        30.05R
HOOD RIVER     CLEAR     64  55  72 CALM      30.02S
THE DALLES     CLEAR     76  62  62 NW6       29.98R
$$

ORZ029>031-041-044-049-050-061>064-502-503-505>511-031200-
EASTERN OREGON


CITY           SKY/WX    TMP DP  RH WIND       PRES   REMARKS
MADRAS         CLEAR     63  48  59 MISG      30.13S
REDMOND        CLEAR     54  44  69 CALM      30.14S
BEND           CLEAR     61  50  67 S6        30.18S
PRINEVILLE     CLOUDY    55  50  82 CALM      30.16S
KLAMATH FALLS  CLEAR     49  37  63 CALM      30.19S
LAKEVIEW       CLEAR     46  38  73 W5        30.25S
HERMISTON      CLEAR     67  57  70 CALM      29.98F
PENDLETON      CLEAR     73  50  44 S7        30.04S
JOHN DAY       CLEAR     63  49  60 E7        30.20S
MEACHAM        PTCLDY    54  48  80 CALM      30.19F
LA GRANDE      PTCLDY    61  54  77 SW3       30.15S
BAKER CITY     PTCLDY    56  54  93 CALM      30.18S
BURNS          CLEAR     56  48  74 NW7       30.23S
ROME             N/A     61  50  67 S6        30.21S
ONTARIO        PTCLDY    68  60  75 CALM      30.11R
$$


OTHER REGIONAL REPORTS

CITY           SKY/WX    TMP DP  RH WIND       PRES   REMARKS
SEATTLE        PTCLDY    64  49  57 NW3       30.08S
SPOKANE        MOCLDY    72  52  49 S8        30.10S SMOKE
VANCOUVER BC   PTCLDY    63  63 100 E7        30.06S
PRINCE GEORGE  MOCLDY    59  55  88 VRB2      30.09R FOG
DAWSON CREEK   FOG       55  55 100 S2        30.00S VSB 1/4
WHITEHORSE     MOCLDY    55  52  88 S9        30.01S
BOISE          CLEAR     70  59  68 SW5       30.15R
REDDING        PTCLDY    65  42  43 CALM      29.97R
SAN FRANCISCO  PTCLDY    56  52  86 W10       30.04R

$$




USA.gov is the U.S. government's official web portal to all federal, state and local government web resources and services.